Weather History for Cortez, CO

Change the Weather History Date:

Friday, February 8, 2013

  Actual Average Record
Temperature  
Mean Temperature 42 °F 30 °F  
Max Temperature 55 °F 44 °F 57 °F (2008)
Min Temperature 28 °F 17 °F 1 °F (2011)
Degree Days  
Heating Degree Days 23 34  
Month to date heating degree days 238 280  
Since 1 July heating degree days 4093 4085  
Cooling Degree Days 0 0  
Month to date cooling degree days 0 0  
Year to date cooling degree days 0 0  
Moisture  
Dew Point 18 °F    
Average Humidity 48    
Maximum Humidity 75    
Minimum Humidity 20    
Precipitation  
Precipitation 0.00 in 0.03 in 0.20 in (2001)
Month to date precipitation 0.00 0.21  
Year to date precipitation 1.62 1.22  
Sea Level Pressure  
Sea Level Pressure 29.76 in    
Wind  
Wind Speed 19 mph (South)    
Max Wind Speed 35 mph    
Max Gust Speed 40 mph    
Visibility 10 miles    
Events      
T = Trace of Precipitation, MM = Missing Value Source: NWS Daily Summary

Daily Weather History Graph

Daily Weather History Graph

Search for Another Location

Airport:

Trip Planner

Search our weather history database for the weather conditions in past years. The results will help you decide how hot, cold, wet, or windy it might be!

Date:

Astronomy

Feb. 08, 2013 Rise Set
Actual Time 7:10 AM MST 5:47 PM MST
Civil Twilight 6:43 AM MST 6:14 PM MST
Nautical Twilight 6:12 AM MST 6:44 PM MST
Astronomical Twilight 5:42 AM MST 7:15 PM MST
Moon 5:40 AM MST (2/8) 4:24 PM MST (2/8)
Length of Visible Light 11h 30m
Length of Day
10h 36m
Waning Crescent, 3% of the Moon is Illuminated
Feb 8
Waning Crescent
Feb 10
New
Feb 17
First Quarter
Feb 25
Full
Mar 4
Last Quarter

Hourly Weather History & Observations

Time (MST) Temp. Windchill Dew Point Humidity Pressure Visibility Wind Dir Wind Speed Gust Speed Precip Events Conditions
12:53 AM 30.9 °F - 21.0 °F 67% 30.01 in 10.0 mi Calm Calm - N/A   Mostly Cloudy
1:53 AM 41.0 °F 33.1 °F 18.0 °F 40% 29.94 in 10.0 mi SE 15.0 mph 20.7 mph N/A   Overcast
2:53 AM 41.0 °F 32.8 °F 17.1 °F 38% 29.91 in 10.0 mi SE 16.1 mph - N/A   Mostly Cloudy
3:53 AM 41.0 °F 32.5 °F 17.1 °F 38% 29.90 in 10.0 mi SSE 17.3 mph 25.3 mph N/A   Mostly Cloudy
4:53 AM 41.0 °F 30.7 °F 18.0 °F 40% 29.87 in 10.0 mi SE 25.3 mph 34.5 mph N/A   Clear
5:53 AM 39.9 °F 30.8 °F 19.0 °F 43% 29.89 in 10.0 mi SE 18.4 mph 25.3 mph N/A   Clear
6:53 AM 41.0 °F 31.4 °F 19.9 °F 43% 29.88 in 10.0 mi SE 21.9 mph 34.5 mph N/A   Clear
7:53 AM 39.9 °F 29.7 °F 19.9 °F 45% 29.89 in 10.0 mi SE 23.0 mph 34.5 mph N/A   Clear
8:53 AM 41.0 °F 30.7 °F 21.0 °F 45% 29.88 in 10.0 mi SE 25.3 mph 32.2 mph N/A   Mostly Cloudy
9:53 AM 45.0 °F 36.4 °F 21.9 °F 40% 29.86 in 10.0 mi SE 23.0 mph 39.1 mph N/A   Clear
10:53 AM 48.0 °F - 24.1 °F 39% 29.81 in 10.0 mi SE 25.3 mph 35.7 mph N/A   Clear
11:53 AM 50.0 °F - 23.0 °F 35% 29.77 in 10.0 mi SE 23.0 mph 32.2 mph N/A   Clear
12:53 PM 53.1 °F - 23.0 °F 31% 29.70 in 10.0 mi SSE 19.6 mph 29.9 mph N/A   Clear
1:53 PM 52.0 °F - 21.9 °F 31% 29.63 in 10.0 mi SSE 18.4 mph 29.9 mph N/A   Scattered Clouds
2:26 PM 55.4 °F - 15.8 °F 21% 29.72 in 10.0 mi SSW 24.2 mph 34.5 mph N/A   Scattered Clouds
2:53 PM 55.0 °F - 16.0 °F 22% 29.59 in 10.0 mi SSW 29.9 mph 35.7 mph N/A   Partly Cloudy
3:53 PM 53.1 °F - 15.1 °F 22% 29.59 in 10.0 mi SSW 31.1 mph 40.3 mph N/A   Clear
4:53 PM 50.0 °F - 12.9 °F 23% 29.59 in 10.0 mi SSW 29.9 mph 38.0 mph N/A   Clear
5:53 PM 45.0 °F 38.2 °F 17.1 °F 33% 29.61 in 10.0 mi SSW 15.0 mph - N/A   Clear
6:53 PM 44.1 °F 35.9 °F 12.0 °F 27% 29.62 in 10.0 mi SSW 19.6 mph - N/A   Clear
7:53 PM 39.0 °F 31.8 °F 15.1 °F 38% 29.65 in 10.0 mi SSW 11.5 mph - N/A   Clear
8:53 PM 37.9 °F 29.6 °F 12.9 °F 36% 29.66 in 10.0 mi SW 13.8 mph - N/A   Clear
9:53 PM 36.0 °F 27.5 °F 17.1 °F 46% 29.68 in 10.0 mi SSW 12.7 mph - N/A   Clear
10:53 PM 35.1 °F 27.9 °F 19.9 °F 54% 29.68 in 10.0 mi SSW 9.2 mph - N/A   Clear
11:53 PM 28.9 °F - 19.9 °F 69% 29.67 in 10.0 mi Calm Calm - N/A   Clear